SBIRS GEO-5 (USA 315)

Last updated on Mon Oct 14 2024 00:02:41 GMT+0000 (Coordinated Universal Time)

1 48618U 21042A 24287.35327233 .00000109 00000+0 00000+0 0 9995 2 48618 5.9675 325.9096 0002213 238.3868 326.1992 1.00272016 12623
UTC large
Height (km)
Speed (km/s)
/
Latitude / Longitude
Inclination (degrees)
Orbital Period (minutes)
Azimuth
Elevation
Range (km)
Doppler Factor

Next 0 passes for location: London (51.5072 / 0.1276)

Sorry there are no passes over London.